sat.trackr.live / text

‹ back to catalog

TRANSPORTER-12 OBJECT CL

NORAD 62691 · 2025-009CL

PAYLOAD ACTIVE UNKNOWN

§ Identity

Operator
Country
TBD
Launch date
2025-01-14
Launch site
AFWTR
Launch vehicle
Mass (kg)
RCS (m²)

External: N2YO · Heavens-Above · Gunter

§ Orbital elements

Epoch: 2026-09-22T17:43:00.968160Z

Period
92.68 min
Inclination
97.3687°
Eccentricity
0.0001752
Mean motion
15.53805085 rev/d
Perigee alt
404.4 km
Apogee alt
406.8 km
Semi-major
6,783.8 km
B*
6.3089e-4
RAAN
353.1018°
Arg perigee
215.5543°
Mean anomaly
144.5594°
Rev number
9,430

§ Raw data

TRANSPORTER-12 OBJECT CL1 62691U 25009CL  26265.73820565  .00040544  00000+0  63089-3 0  99922 62691  97.3687 353.1018 0001752 215.5543 144.5594 15.53805085 94305

JSON: /api/v1/satellites/62691 · /tle

For live sub-satellite position, see the globe view (requires WebGL).

§ Visibility from observer

Set your observer location to see the next 7 days of passes ≥ 10°. The values pass through the URL so the page stays shareable.

No JS? Fill the form by hand. The geolocation button needs JavaScript.